This is the latest recevied weather packets stored in our database for station/object PY5AL-13. If no packets are shown the sender has not sent any weather packets the latest 10 day(s).
| Time | Temp. | Humidity | Pressure | Rain* | Wind** | Luminosity | Snow |
|---|---|---|---|---|---|---|---|
| 1777499662 | 21.67° C | 78% | 1016.8 hPa | - | - | - | - |
| 1777498462 | 22.22° C | 77% | 1016.2 hPa | - | - | - | - |
| 1777497262 | 21.67° C | 78% | 1016.4 hPa | - | - | - | - |
| 1777496062 | 21.67° C | 77% | 1015.8 hPa | - | - | - | - |
| 1777494862 | 22.22° C | 75% | 1015.8 hPa | - | - | - | - |
| 1777493662 | 22.78° C | 75% | 1015.5 hPa | - | - | - | - |
| 1777492462 | 22.78° C | 75% | 1016 hPa | - | - | - | - |
| 1777491262 | 22.78° C | 75% | 1014.8 hPa | - | - | - | - |
| 1777490062 | 22.78° C | 76% | 1015.8 hPa | - | - | - | - |
| 1777488862 | 22.78° C | 76% | 1016.2 hPa | - | - | - | - |
| 1777487662 | 22.22° C | 77% | 1015.7 hPa | - | - | - | - |
| 1777486462 | 22.22° C | 76% | 1015.2 hPa | - | - | - | - |
| 1777485262 | 22.22° C | 77% | 1015.2 hPa | - | - | - | - |
| 1777484062 | 22.22° C | 77% | 1015.1 hPa | - | - | - | - |
| 1777482862 | 21.67° C | 78% | 1015.1 hPa | - | - | - | - |
| 1777481662 | 22.22° C | 79% | 1015.4 hPa | - | - | - | - |
| 1777480462 | 21.67° C | 81% | 1015.3 hPa | - | - | - | - |
| 1777479262 | 21.67° C | 81% | 1015.5 hPa | - | - | - | - |
| 1777478062 | 21.67° C | 81% | 1016.1 hPa | - | - | - | - |
| 1777476862 | 21.67° C | 81% | 1016.5 hPa | - | - | - | - |
| 1777475663 | 22.22° C | 80% | 1017.2 hPa | - | - | - | - |
| 1777474462 | 21.67° C | 81% | 1017.7 hPa | - | - | - | - |
| 1777473262 | 21.67° C | 78% | 1018.1 hPa | - | - | - | - |
| 1777472063 | 21.67° C | 77% | 1018.4 hPa | - | - | - | - |
| 1777470863 | 21.67° C | 78% | 1018.6 hPa | - | - | - | - |
* Rain since midnight (hover to see other rain measurements)
** Current wind speed in m/s (hover to see current wind gust speed)